When you browse on this site, cookies collect data to enhance your experience and personalize the content and advertising you see.
Visit our Privacy Policy to learn more. By continuing to use the site, you agree to this use of cookies and data.

Hourly Weather Delhi

Today, 6 July, Monday

Time Temperature Precipitation Wind Pressure Humidity
00:00 +39°C° 0 mm 3 mps 728 mmHg 34%
01:00 +39°C° 0 mm 3 mps 727 mmHg 36%
02:00 +38°C° 0 mm 3 mps 727 mmHg 37%
03:00 +38°C° 0 mm 3 mps 727 mmHg 40%
04:00 +37°C° 0 mm 3 mps 727 mmHg 42%
05:00 +37°C° 0 mm 3 mps 727 mmHg 44%
06:00 +37°C° 0 mm 3 mps 728 mmHg 43%
07:00 +38°C° 0 mm 3 mps 728 mmHg 43%
08:00 +38°C° 0 mm 4 mps 729 mmHg 42%
09:00 +40°C° 0 mm 3 mps 728 mmHg 38%
10:00 +42°C° 0 mm 3 mps 728 mmHg 33%
11:00 +43°C° 0 mm 2 mps 728 mmHg 29%
12:00 +43°C° 0 mm 2 mps 728 mmHg 29%
13:00 +43°C° 0 mm 2 mps 727 mmHg 28%
14:00 +43°C° 0 mm 2 mps 727 mmHg 28%
15:00 +44°C° 0 mm 3 mps 726 mmHg 28%
16:00 +44°C° 0 mm 3 mps 726 mmHg 28%
17:00 +44°C° 0 mm 3 mps 725 mmHg 27%
18:00 +43°C° 0 mm 3 mps 726 mmHg 29%
19:00 +43°C° 0 mm 3 mps 726 mmHg 30%
20:00 +42°C° 0 mm 4 mps 727 mmHg 32%
21:00 +42°C° 0 mm 4 mps 727 mmHg 33%
22:00 +41°C° 0 mm 4 mps 728 mmHg 34%
23:00 +41°C° 0 mm 4 mps 728 mmHg 35%

Tomorrow, 7 July, Tuesday

Time Temperature Precipitation Wind Pressure Humidity
00:00 +40°C° 0 mm 4 mps 728 mmHg 36%
01:00 +40°C° 0 mm 4 mps 728 mmHg 38%
02:00 +38°C° 0 mm 3 mps 728 mmHg 39%
03:00 +38°C° 0.3 mm 3 mps 728 mmHg 42%
04:00 +37°C° 0.3 mm 3 mps 728 mmHg 44%
05:00 +36°C° 0.3 mm 2 mps 728 mmHg 47%
06:00 +37°C° 0.1 mm 2 mps 729 mmHg 45%
07:00 +38°C° 0.1 mm 2 mps 729 mmHg 43%
08:00 +39°C° 0.1 mm 2 mps 730 mmHg 41%
09:00 +40°C° 0 mm 3 mps 730 mmHg 38%
10:00 +43°C° 0 mm 3 mps 730 mmHg 34%
11:00 +44°C° 0 mm 3 mps 730 mmHg 31%
12:00 +44°C° 0 mm 4 mps 729 mmHg 31%
13:00 +44°C° 0 mm 4 mps 729 mmHg 32%
14:00 +44°C° 0 mm 4 mps 729 mmHg 32%
15:00 +44°C° 0 mm 4 mps 729 mmHg 32%
16:00 +44°C° 0 mm 4 mps 728 mmHg 32%
17:00 +44°C° 0 mm 4 mps 728 mmHg 31%
18:00 +42°C° 0.2 mm 5 mps 729 mmHg 38%
19:00 +40°C° 0.2 mm 5 mps 729 mmHg 44%
20:00 +38°C° 0.2 mm 6 mps 730 mmHg 51%
21:00 +37°C° 0.1 mm 5 mps 730 mmHg 50%
22:00 +37°C° 0.1 mm 5 mps 730 mmHg 49%
23:00 +36°C° 0.1 mm 4 mps 731 mmHg 49%

Day after tomorrow, 8 July, Wednesday

Time Temperature Precipitation Wind Pressure Humidity
00:00 +36°C° 0 mm 4 mps 731 mmHg 49%
01:00 +36°C° 0 mm 3 mps 730 mmHg 50%
02:00 +35°C° 0 mm 3 mps 730 mmHg 51%
03:00 +35°C° 0 mm 2 mps 730 mmHg 53%
04:00 +35°C° 0 mm 2 mps 730 mmHg 54%
05:00 +35°C° 0 mm 2 mps 730 mmHg 56%
06:00 +35°C° 0 mm 2 mps 730 mmHg 55%
07:00 +35°C° 0 mm 2 mps 731 mmHg 54%
08:00 +36°C° 0 mm 3 mps 731 mmHg 54%
09:00 +37°C° 0 mm 3 mps 731 mmHg 52%
10:00 +37°C° 0 mm 3 mps 731 mmHg 50%
11:00 +38°C° 0 mm 2 mps 731 mmHg 48%
12:00 +38°C° 0 mm 3 mps 730 mmHg 46%
13:00 +39°C° 0 mm 3 mps 730 mmHg 45%
14:00 +39°C° 0 mm 3 mps 729 mmHg 43%
15:00 +39°C° 0 mm 3 mps 728 mmHg 43%
16:00 +39°C° 0 mm 3 mps 728 mmHg 42%
17:00 +39°C° 0 mm 2 mps 728 mmHg 42%
18:00 +39°C° 0.1 mm 2 mps 728 mmHg 43%
19:00 +39°C° 0.1 mm 2 mps 728 mmHg 43%
20:00 +38°C° 0.1 mm 2 mps 728 mmHg 44%
21:00 +38°C° 0.1 mm 2 mps 728 mmHg 46%
22:00 +37°C° 0.1 mm 3 mps 728 mmHg 48%
23:00 +37°C° 0.1 mm 3 mps 728 mmHg 50%

9 July, Thursday

Time Temperature Precipitation Wind Pressure Humidity
00:00 +36°C° 0.4 mm 3 mps 728 mmHg 51%
01:00 +36°C° 0.4 mm 2 mps 728 mmHg 52%
02:00 +36°C° 0.4 mm 2 mps 727 mmHg 54%
03:00 +35°C° 0.4 mm 2 mps 727 mmHg 55%
04:00 +35°C° 0.4 mm 2 mps 727 mmHg 56%
05:00 +35°C° 0.4 mm 2 mps 727 mmHg 56%
06:00 +35°C° 0.6 mm 2 mps 728 mmHg 56%
07:00 +36°C° 0.6 mm 3 mps 728 mmHg 55%
08:00 +36°C° 0.6 mm 3 mps 728 mmHg 54%
09:00 +38°C° 0 mm 3 mps 728 mmHg 48%
10:00 +41°C° 0 mm 4 mps 728 mmHg 42%
11:00 +43°C° 0 mm 4 mps 728 mmHg 37%
12:00 +43°C° 0 mm 4 mps 727 mmHg 36%
13:00 +43°C° 0 mm 4 mps 727 mmHg 36%
14:00 +43°C° 0 mm 4 mps 726 mmHg 35%
15:00 +42°C° 0.5 mm 4 mps 726 mmHg 40%
16:00 +40°C° 0.5 mm 4 mps 726 mmHg 46%
17:00 +38°C° 0.5 mm 4 mps 725 mmHg 51%
18:00 +37°C° 0.9 mm 4 mps 725 mmHg 55%
19:00 +36°C° 0.9 mm 5 mps 726 mmHg 60%
20:00 +35°C° 0.9 mm 5 mps 726 mmHg 65%
21:00 +33°C° 5.9 mm 6 mps 726 mmHg 70%
22:00 +32°C° 5.9 mm 6 mps 727 mmHg 76%
23:00 +30°C° 5.9 mm 7 mps 727 mmHg 82%

10 July, Friday

Time Temperature Precipitation Wind Pressure Humidity
00:00 +32°C° 1 mm 6 mps 727 mmHg 76%
01:00 +33°C° 1 mm 5 mps 726 mmHg 70%
02:00 +33°C° 1 mm 4 mps 726 mmHg 65%
03:00 +34°C° 0 mm 4 mps 726 mmHg 63%
04:00 +34°C° 0 mm 4 mps 726 mmHg 61%
05:00 +34°C° 0 mm 3 mps 726 mmHg 59%
06:00 +35°C° 0.3 mm 4 mps 727 mmHg 55%
07:00 +36°C° 0.3 mm 5 mps 727 mmHg 51%
08:00 +38°C° 0.3 mm 6 mps 727 mmHg 48%
09:00 +39°C° 0 mm 6 mps 727 mmHg 45%
10:00 +40°C° 0 mm 5 mps 727 mmHg 43%
11:00 +41°C° 0 mm 5 mps 727 mmHg 41%
12:00 +42°C° 0 mm 5 mps 727 mmHg 39%
13:00 +43°C° 0 mm 4 mps 726 mmHg 36%
14:00 +43°C° 0 mm 4 mps 725 mmHg 34%
15:00 +44°C° 0 mm 4 mps 725 mmHg 33%
16:00 +45°C° 0 mm 5 mps 724 mmHg 31%
17:00 +46°C° 0 mm 5 mps 724 mmHg 30%
18:00 +43°C° 0.1 mm 5 mps 724 mmHg 35%
19:00 +41°C° 0.1 mm 4 mps 725 mmHg 40%
20:00 +40°C° 0.1 mm 4 mps 725 mmHg 45%
21:00 +37°C° 0.3 mm 4 mps 726 mmHg 54%
22:00 +35°C° 0.3 mm 5 mps 726 mmHg 63%
23:00 +32°C° 0.3 mm 5 mps 727 mmHg 72%

11 July, Saturday

Time Temperature Precipitation Wind Pressure Humidity
00:00 +32°C° 1 mm 4 mps 726 mmHg 72%
01:00 +31°C° 1 mm 3 mps 726 mmHg 72%
02:00 +31°C° 1 mm 2 mps 726 mmHg 73%
03:00 +31°C° 1.1 mm 2 mps 726 mmHg 73%
04:00 +31°C° 1.1 mm 1 mps 726 mmHg 74%
05:00 +31°C° 1.1 mm 1 mps 726 mmHg 75%
06:00 +32°C° 0.5 mm 2 mps 726 mmHg 69%
07:00 +35°C° 0.5 mm 2 mps 726 mmHg 63%
08:00 +36°C° 0.5 mm 2 mps 727 mmHg 58%
09:00 +37°C° 0.3 mm 3 mps 727 mmHg 53%
10:00 +39°C° 0.3 mm 3 mps 727 mmHg 49%
11:00 +41°C° 0.3 mm 4 mps 727 mmHg 45%
12:00 +42°C° 0 mm 4 mps 726 mmHg 41%
13:00 +43°C° 0 mm 4 mps 726 mmHg 38%
14:00 +44°C° 0 mm 3 mps 725 mmHg 34%
15:00 +44°C° 0 mm 3 mps 725 mmHg 34%
16:00 +44°C° 0 mm 3 mps 724 mmHg 33%
17:00 +43°C° 0 mm 2 mps 724 mmHg 32%
18:00 +40°C° 1.5 mm 3 mps 724 mmHg 43%
19:00 +37°C° 1.5 mm 3 mps 724 mmHg 54%
20:00 +34°C° 1.5 mm 4 mps 725 mmHg 64%
21:00 +34°C° 1.6 mm 4 mps 725 mmHg 64%
22:00 +34°C° 1.6 mm 4 mps 726 mmHg 64%
23:00 +34°C° 1.6 mm 4 mps 726 mmHg 63%
Show more